GEFSNGP_500_meanwind_006.txt.gz
Wind_Speed
26 27 27 26 27 29 31 34 37 35 30 28 31 36 36 32 27 26 28 32 36 36 32 28 24 24 25 27 28 29 30 29 29 31 32 33 33 31 31 32 33 33 33 33
29 30 29 26 26 28 29 31 32 32 30 30 31 33 32 28 21 18 19 22 24 24 24 23 23 24 26 28 28 28 28 29 29 30 31 32 32 31 30 31 31 31 32 31
32 32 31 28 26 26 26 27 28 29 29 28 28 28 28 26 22 17 13 12 12 13 17 20 21 22 24 26 27 27 27 28 29 30 30 30 30 29 29 30 31 32 32 32
35 34 33 28 26 24 24 24 26 27 26 25 24 24 23 24 21 15 11 7 8 10 11 14 16 18 20 21 23 24 26 27 29 30 31 31 31 30 31 32 32 32 32 32
35 36 34 27 26 23 22 21 23 25 25 23 22 21 20 19 18 14 10 8 9 9 9 11 13 16 18 19 21 23 24 25 27 29 31 31 31 31 30 29 28 28 29 29
28 31 33 28 25 21 22 20 21 21 21 20 19 19 19 16 15 13 10 8 8 8 9 10 13 15 17 19 21 22 24 25 25 26 26 25 23 22 22 22 23 24 25 26
25 27 29 28 28 26 25 23 21 19 19 17 16 17 16 14 13 12 11 10 9 9 9 10 12 14 16 19 21 23 25 25 24 22 20 18 17 17 17 17 19 21 22 23
25 26 27 27 30 30 27 25 23 20 17 15 15 14 13 12 11 10 9 8 7 7 6 6 7 8 10 12 14 16 16 16 16 15 13 12 13 13 14 15 17 18 19 19
28 26 26 27 30 31 30 27 24 21 18 15 14 13 12 9 8 7 7 5 4 4 3 3 4 6 7 8 8 7 7 7 8 8 9 10 10 10 10 13 15 17 17 18
29 27 28 28 29 31 31 28 24 22 21 18 15 14 13 10 8 6 5 4 3 3 3 4 5 6 7 7 7 6 3 3 5 7 8 9 11 12 14 16 17 17 17 18
27 26 28 27 27 28 28 26 24 22 23 22 19 16 16 15 14 12 11 9 8 7 7 7 8 8 8 7 6 5 3 3 5 7 9 11 13 14 15 15 16 17 17 19
25 25 27 25 25 25 25 24 23 23 24 24 22 20 19 19 18 17 15 13 11 11 11 11 11 11 11 10 9 8 6 6 7 9 10 11 11 12 12 14 15 17 19 20
27 26 26 23 22 23 22 20 18 21 23 23 23 23 22 22 22 21 18 16 15 15 15 15 15 14 14 14 13 12 11 11 11 11 11 11 12 12 13 15 16 19 21 22
28 27 25 23 23 23 20 16 13 12 17 22 24 25 25 24 24 24 22 21 20 20 19 20 20 18 18 17 16 16 15 15 14 14 14 13 13 14 15 16 18 20 22 24
28 27 24 23 23 22 19 16 13 12 13 15 18 22 25 25 25 26 25 24 24 24 24 23 23 22 21 20 19 18 18 17 16 16 16 16 15 15 16 17 18 20 21 23
28 27 25 23 21 19 18 17 17 16 16 16 16 16 18 21 24 26 27 27 28 28 27 26 26 26 24 23 21 20 19 18 18 18 18 17 16 16 16 17 17 17 19 21
28 27 26 23 20 19 19 21 23 23 21 21 19 18 16 15 17 20 22 23 24 27 28 28 28 28 28 26 23 22 21 20 19 19 19 18 17 16 16 15 14 15 17 20
28 27 26 25 23 21 21 23 26 27 27 25 23 21 19 17 15 16 18 19 20 21 23 25 27 28 29 28 25 23 22 21 21 20 19 18 18 17 15 14 14 14 16 19
26 26 28 29 28 27 25 24 25 26 26 25 24 23 21 20 19 18 19 18 17 18 20 22 23 25 26 27 26 24 22 22 22 21 20 19 18 17 15 14 14 14 17 19
28 28 29 29 30 32 32 29 26 24 25 26 25 25 24 23 22 22 22 20 17 18 20 20 20 21 23 24 25 24 22 21 21 21 20 19 19 17 16 15 15 16 17 19
34 34 33 34 36 36 38 37 33 31 30 28 27 27 27 27 27 26 26 23 20 21 22 21 19 19 20 21 22 23 22 20 19 19 20 20 19 19 18 17 17 18 17 18
46 44 43 44 43 43 42 39 38 36 34 31 29 29 30 30 30 30 29 26 24 26 27 25 21 20 21 23 23 22 22 21 20 19 18 18 18 18 18 18 18 18 17 17
52 50 50 48 47 45 45 44 42 40 38 36 34 35 35 35 34 34 33 31 31 31 31 30 28 27 26 26 25 23 23 23 23 21 19 18 17 17 17 17 18 18 16 17
60 56 54 52 51 50 49 48 47 46 45 43 41 40 39 39 38 37 36 36 35 35 36 34 31 31 30 29 28 26 26 26 24 23 21 21 20 19 18 18 18 18 17 18
67 63 58 55 53 52 51 50 49 47 45 43 41 40 39 39 39 37 36 36 37 36 36 34 32 32 32 31 29 28 28 27 25 23 21 22 22 20 19 18 18 19 19 21
62 62 60 57 55 52 50 48 46 44 44 43 42 40 39 39 38 37 36 36 37 36 35 34 34 34 32 29 27 27 27 27 25 22 21 20 20 18 17 18 19 20 21 23
49 48 49 51 51 49 47 43 42 41 41 41 39 37 37 38 38 37 36 36 36 36 34 32 31 30 28 26 24 23 23 24 24 24 24 24 22 21 20 19 19 20 21 24

GEFSNGP_500_meanwind_012.txt.gz
Wind_Speed
29 29 31 32 32 35 37 37 38 35 34 32 32 31 31 33 35 36 36 36 36 33 28 23 20 19 20 22 22 23 24 26 26 25 26 27 27 28 28 28 29 29 29 28
27 27 30 30 30 34 37 37 37 37 34 33 31 30 30 30 32 34 33 31 30 27 22 17 16 15 15 17 17 18 20 22 23 25 25 26 26 26 27 29 29 29 28 28
25 26 28 27 27 31 33 34 35 35 33 32 30 29 29 28 29 31 30 27 25 23 20 16 13 12 13 14 15 17 18 20 22 24 25 25 26 26 27 28 28 28 28 28
27 27 27 26 28 31 33 32 31 33 33 32 30 28 28 26 27 27 26 23 21 19 17 15 12 11 11 13 14 15 16 18 20 22 23 24 25 27 28 28 28 27 27 27
30 31 28 23 27 32 33 29 28 33 33 32 31 29 28 26 24 24 23 21 18 17 15 13 11 9 9 9 11 13 14 17 19 20 22 24 25 26 26 25 24 23 22 22
31 32 30 28 28 30 31 28 28 32 33 33 33 31 28 25 22 21 20 18 15 14 13 12 11 9 8 9 10 11 13 15 18 20 21 21 21 19 18 17 16 16 16 16
31 32 31 31 30 30 31 31 30 30 30 32 34 33 31 26 21 19 18 16 14 12 11 10 8 8 8 8 9 11 12 14 15 16 16 16 15 15 14 13 12 13 13 14
33 33 32 32 32 33 33 32 31 30 30 30 29 31 31 27 22 18 16 15 13 11 10 8 7 6 6 7 7 8 9 9 9 8 7 7 8 9 9 9 10 10 11 12
36 35 35 35 35 35 35 34 32 31 30 29 28 28 30 28 23 19 17 15 13 12 10 9 8 7 7 7 8 8 8 7 6 4 3 4 5 7 7 8 9 10 11 13
35 35 36 37 37 36 36 36 34 32 31 29 28 27 29 29 26 22 20 18 16 15 14 13 12 11 10 10 9 9 9 8 6 5 5 5 6 7 8 9 11 12 13 13
38 36 36 36 37 38 38 37 35 34 32 30 29 27 28 29 28 25 23 21 20 18 17 16 15 14 13 12 11 11 10 9 9 8 8 8 9 10 11 12 13 13 13 13
41 39 37 36 37 38 38 37 35 34 32 30 29 28 28 29 29 27 26 24 23 22 20 18 17 16 16 15 13 12 12 12 12 12 12 12 13 13 14 14 14 14 14 15
45 44 42 39 38 39 39 37 36 34 32 30 29 28 28 29 30 29 28 27 27 26 24 22 20 19 18 17 16 15 14 14 14 15 15 15 16 16 16 16 16 16 15 16
48 47 45 41 39 39 40 39 37 35 33 30 28 27 26 27 29 28 28 28 29 29 29 28 26 24 22 21 19 18 17 17 17 17 17 17 17 17 17 17 17 16 16 16
50 48 47 45 41 39 40 41 39 37 34 31 29 26 24 24 24 24 25 26 27 29 30 30 30 28 26 25 23 22 21 20 19 18 18 18 18 18 18 17 17 16 16 15
53 51 49 47 45 41 40 41 40 38 37 33 31 30 28 26 26 26 25 24 25 28 29 30 30 29 28 27 26 24 23 22 21 20 19 19 19 19 18 18 17 16 15 14
55 56 55 50 46 43 41 41 42 40 38 36 33 33 32 31 29 28 27 26 25 25 27 28 28 27 26 25 24 23 23 22 22 21 20 20 20 20 19 18 17 16 15 14
57 56 55 54 52 47 43 41 42 41 40 38 37 36 35 34 32 31 30 29 27 24 24 24 24 23 22 21 19 19 19 20 21 22 21 21 20 20 19 18 17 17 16 16
58 57 55 55 55 54 50 45 44 42 40 39 37 36 37 36 36 35 35 34 29 26 24 24 22 20 19 17 16 15 15 16 18 19 20 21 20 20 19 18 17 17 16 16
63 63 63 63 62 62 60 56 52 49 44 39 36 33 35 35 35 36 36 36 32 28 28 28 25 22 20 18 16 14 13 13 13 15 17 19 19 19 19 18 17 17 17 17
69 70 70 71 71 70 69 66 62 57 53 50 44 38 36 35 36 38 38 36 33 32 32 32 29 25 23 21 19 17 15 13 12 12 14 16 18 18 18 18 17 17 17 18
73 74 74 74 76 77 77 76 72 67 62 59 52 46 41 37 37 40 41 38 35 35 35 35 33 30 27 26 24 22 20 17 15 14 14 15 17 18 18 18 18 17 18 18
65 65 64 64 66 68 70 73 74 73 70 64 58 53 48 42 39 40 41 42 40 39 38 36 34 32 31 31 29 27 25 23 20 19 18 17 17 18 18 18 18 18 19 19
55 51 49 48 49 50 52 55 59 62 64 62 57 53 50 46 42 39 39 42 42 41 39 36 35 34 34 34 33 31 29 28 26 24 23 22 20 19 19 19 19 20 20 20
40 38 36 36 35 34 35 38 41 44 46 47 47 46 46 45 43 41 40 40 39 39 39 38 36 36 37 37 36 34 33 31 30 28 27 25 23 23 23 23 22 21 21 20
33 33 34 33 32 29 26 24 23 24 26 28 31 34 38 40 41 39 37 37 36 36 38 39 38 38 39 39 39 37 35 34 33 31 29 27 25 25 25 25 23 21 19 18
30 32 33 32 30 29 26 22 17 13 15 18 20 25 29 33 34 34 33 32 32 34 36 38 39 39 39 40 40 38 37 35 33 32 30 27 26 26 26 25 23 21 20 19

GEFSNGP_500_meanwind_018.txt.gz
Wind_Speed
16 18 20 20 22 25 28 28 30 30 31 31 32 32 32 33 33 32 32 32 32 32 32 31 30 29 29 28 27 25 21 19 17 15 16 16 17 18 19 22 23 22 21 21
16 19 21 21 22 26 27 28 29 30 30 30 31 30 30 30 29 29 30 30 30 30 29 28 27 25 24 23 21 20 18 14 13 12 12 12 12 13 13 15 16 17 18 19
18 20 21 21 23 25 27 28 29 31 30 31 31 31 30 30 29 29 29 29 28 27 27 26 24 21 20 19 18 16 15 14 13 12 11 11 11 12 13 14 15 16 18 19
22 22 21 21 24 27 28 28 30 32 33 33 34 33 31 32 31 29 29 28 27 26 25 23 21 19 17 16 15 15 14 13 12 11 11 11 12 13 14 15 17 18 19 20
26 26 25 26 27 28 30 29 31 32 33 34 35 34 33 34 33 31 30 28 27 25 24 22 19 17 16 14 13 13 13 12 12 12 12 13 14 15 16 17 18 18 18 18
30 30 30 32 32 32 32 33 33 33 34 35 35 35 34 35 34 33 31 28 27 25 24 21 18 16 14 13 12 11 11 11 12 12 13 14 15 16 16 17 16 15 14 13
32 32 34 35 35 35 36 37 36 36 36 37 36 35 35 35 35 33 31 29 27 25 24 21 18 15 13 11 10 10 10 11 11 12 12 12 13 13 13 13 12 11 11 11
35 35 37 38 38 39 39 39 39 39 39 39 38 36 35 35 34 34 32 29 27 26 25 22 18 15 12 11 10 9 9 9 10 9 9 9 8 8 8 8 8 9 9 10
38 39 40 41 42 42 42 42 42 41 40 40 39 37 36 35 34 33 32 31 28 26 26 24 21 18 15 13 12 11 10 10 9 8 8 7 7 7 7 7 8 8 9 9
41 43 44 45 46 47 47 46 46 45 42 40 39 38 37 36 34 33 33 31 29 26 27 27 24 21 19 17 15 14 12 11 10 9 8 8 7 8 8 8 9 9 9 10
44 46 46 48 50 51 52 52 51 48 44 42 40 39 38 37 35 34 33 32 30 28 28 29 28 25 22 20 18 17 15 13 12 12 11 10 10 10 10 10 10 11 11 11
47 49 51 53 54 56 56 56 55 52 49 45 43 41 40 39 37 36 34 32 31 29 29 31 31 29 26 23 21 20 18 16 15 14 13 13 13 13 13 13 13 13 13 13
51 54 56 58 59 60 59 58 56 55 53 50 47 44 42 41 39 38 36 34 31 30 31 32 33 32 29 27 25 23 21 20 18 17 16 16 16 16 17 17 17 16 16 16
56 58 59 60 60 59 59 58 56 55 54 51 50 48 45 44 42 40 38 36 33 32 33 33 34 34 33 31 29 27 25 23 22 21 20 19 18 18 18 18 18 18 18 18
59 59 59 59 58 58 59 59 58 58 57 55 53 51 47 46 44 41 40 38 35 33 33 34 34 35 34 33 32 31 29 27 26 24 23 22 22 21 20 20 20 19 19 18
59 58 58 59 60 61 63 65 63 63 64 62 59 56 51 48 45 42 41 40 37 35 34 33 33 34 33 32 32 32 31 30 29 27 26 25 25 24 23 22 21 20 19 19
63 62 62 63 66 70 72 74 74 72 70 68 65 60 54 50 48 45 42 41 40 38 36 35 34 32 31 30 30 31 31 30 29 28 28 27 26 26 24 23 22 21 21 20
64 66 68 70 71 70 70 69 68 68 68 67 66 64 60 54 51 48 45 41 41 41 41 39 36 33 30 29 27 27 28 28 28 27 27 26 26 25 25 23 22 22 22 21
65 66 65 63 61 59 56 53 50 49 49 49 51 55 57 56 54 50 46 43 41 42 43 43 40 36 32 30 27 26 26 25 25 25 24 24 23 23 23 23 22 22 22 22
60 57 56 55 52 50 48 46 45 44 43 43 42 42 45 50 54 53 48 45 42 40 41 45 45 40 35 30 27 25 24 23 23 22 21 20 20 20 20 20 20 20 21 21
54 52 49 46 45 44 44 44 43 43 42 42 40 36 35 39 46 51 50 46 44 38 40 43 45 43 38 33 28 26 24 23 22 21 19 18 17 16 16 17 18 18 19 20
49 46 43 42 41 41 41 42 44 44 43 41 39 34 29 29 35 43 47 45 44 39 37 40 44 44 40 35 32 29 26 25 23 21 20 18 16 14 14 14 15 16 18 19
44 41 39 40 41 41 42 44 45 44 42 40 38 32 26 23 27 34 40 43 43 41 37 36 43 46 42 37 34 32 29 27 25 24 22 20 18 16 14 14 14 15 17 18
39 38 40 42 43 44 45 44 44 43 41 38 35 30 25 21 23 30 35 39 40 39 36 34 39 46 45 39 35 33 31 29 28 26 25 23 21 19 17 16 15 16 16 17
38 39 41 42 44 44 43 43 42 39 35 33 31 27 22 19 21 27 33 37 38 37 34 32 35 42 45 42 37 34 32 31 30 29 28 26 24 23 21 19 18 17 17 17
37 39 40 41 41 40 40 40 39 36 33 31 27 23 18 14 18 26 32 35 36 34 32 30 32 38 42 41 38 35 34 33 32 31 30 29 28 26 24 22 20 20 19 19
36 36 37 36 36 36 37 37 36 33 30 28 25 19 13 8 16 25 31 32 32 30 29 29 30 33 37 39 38 37 36 35 33 32 31 30 28 27 26 24 22 21 21 20

GEFSNGP_500_meanwind_024.txt.gz
Wind_Speed
10 12 15 17 18 21 24 25 28 28 29 31 34 36 37 37 38 40 40 41 41 41 40 38 37 36 35 34 33 32 31 30 29 28 26 24 22 19 18 15 13 13 16 18
12 15 17 18 20 22 22 24 27 30 31 35 37 38 38 38 39 40 41 41 41 41 40 39 37 36 34 32 31 30 29 27 26 25 22 20 17 14 12 10 8 5 6 10
15 17 19 21 22 25 24 25 29 33 36 39 39 38 38 38 40 41 41 40 40 40 40 39 38 36 34 32 30 29 28 25 23 22 19 17 15 12 10 8 6 4 4 6
22 23 24 21 28 31 30 31 34 37 39 40 40 40 39 41 43 43 43 42 41 41 40 40 39 37 34 31 29 28 27 24 21 19 17 16 14 11 10 8 7 6 6 7
27 28 28 26 34 35 34 37 40 41 43 44 44 43 42 44 44 44 44 44 43 42 41 40 38 37 34 31 29 28 26 23 20 18 17 15 13 12 11 10 9 8 8 8
30 31 32 35 39 40 40 44 45 46 48 49 49 50 48 47 46 46 46 45 44 43 41 39 38 36 35 32 29 28 26 23 19 17 16 15 13 12 11 11 11 10 9 9
36 37 37 43 44 44 45 48 48 49 50 51 51 51 52 51 50 49 48 46 45 44 42 39 37 36 34 32 29 27 25 22 19 17 15 15 13 12 11 11 10 10 9 7
38 40 42 45 47 47 49 51 52 53 55 56 56 55 55 55 53 51 50 48 46 44 42 39 37 36 34 32 29 27 25 23 20 18 16 14 12 11 11 10 9 8 7 5
42 43 45 47 49 51 53 55 57 59 60 62 63 63 62 60 58 54 51 48 46 44 41 40 37 35 34 32 30 28 27 24 21 19 17 15 13 12 11 10 9 8 6 5
44 46 48 50 52 54 57 60 63 65 66 67 68 68 67 65 61 57 53 50 47 45 42 41 39 36 35 32 31 30 29 27 24 21 18 17 15 13 12 10 9 8 7 6
45 47 50 53 56 59 61 64 66 67 69 70 71 71 70 68 64 61 58 54 50 49 46 43 42 39 35 33 31 32 32 30 27 24 21 19 17 15 13 11 10 9 8 8
49 53 56 58 61 63 66 67 69 71 73 73 74 74 73 71 68 65 62 58 53 50 47 44 43 40 36 34 33 33 34 33 30 27 24 22 20 17 15 14 13 12 11 11
54 57 60 63 66 68 71 72 73 74 75 75 73 72 70 68 65 63 62 60 55 51 48 45 43 41 39 37 34 34 35 35 34 30 27 25 23 20 18 16 15 14 14 14
58 61 64 68 70 72 73 73 73 72 69 66 63 60 56 54 52 50 50 51 51 50 48 46 43 42 42 40 36 35 36 37 36 33 30 27 25 22 20 19 17 17 16 16
63 67 69 71 72 73 73 71 67 62 58 54 50 47 45 44 43 41 39 39 42 45 45 44 42 41 42 40 37 37 37 38 38 36 33 30 27 25 22 20 19 18 17 17
68 70 71 72 72 71 67 60 54 50 47 43 41 41 42 42 40 37 36 35 35 36 40 42 42 39 41 40 38 38 38 38 39 39 36 33 30 28 25 23 21 20 19 19
72 73 73 72 69 63 55 48 45 43 41 41 42 42 42 42 41 38 37 36 35 33 34 39 41 40 40 40 39 38 38 38 39 40 39 36 33 30 27 25 23 21 20 20
71 71 69 64 58 51 46 43 41 41 42 44 45 44 43 43 42 40 39 37 34 31 31 36 39 40 38 39 38 38 38 38 38 40 39 37 34 32 30 27 25 24 21 20
68 65 59 52 47 45 43 42 42 43 44 45 45 45 45 44 43 42 39 36 33 28 28 34 39 40 39 39 39 40 39 36 35 37 38 37 35 33 31 28 26 25 22 19
61 54 48 44 42 42 41 42 43 44 45 46 46 47 46 45 43 41 38 34 31 27 26 32 37 38 38 38 39 41 40 35 33 34 34 34 34 32 30 28 26 23 20 18
52 46 42 41 40 39 39 41 43 45 45 46 47 48 47 45 42 39 36 32 27 24 25 31 35 37 37 37 37 40 39 34 31 30 30 31 32 31 29 26 24 21 18 16
46 42 40 40 38 37 37 40 43 45 45 46 47 47 46 43 40 36 32 27 23 22 24 30 34 36 36 35 37 40 40 35 31 28 27 28 28 28 26 24 21 19 16 14
42 40 39 38 36 36 37 40 42 43 45 46 47 46 44 42 39 34 26 22 20 21 24 29 33 35 35 34 36 39 39 36 31 28 26 26 26 25 24 22 20 17 14 12
40 38 36 34 33 35 36 38 40 42 44 46 45 43 42 39 33 28 21 17 15 21 26 29 33 35 33 33 35 37 38 35 31 27 26 26 25 25 23 21 19 16 14 13
38 35 32 31 31 33 35 38 39 41 43 44 43 41 38 35 29 22 16 11 13 21 27 30 33 33 31 32 35 36 38 36 32 28 27 27 26 25 23 21 18 16 14 13
36 32 29 29 31 33 36 39 41 41 43 43 41 39 36 32 26 19 11 6 12 22 27 30 31 31 29 30 33 36 36 36 33 30 29 28 27 26 23 21 18 16 14 13
31 28 26 27 28 31 34 38 39 40 41 41 38 37 34 30 24 15 7 3 14 22 26 28 29 28 27 28 31 34 35 35 35 32 30 29 28 26 24 22 19 17 15 15

GEFSNGP_500_meanwind_030.txt.gz
Wind_Speed
14 17 19 20 21 23 26 28 30 32 33 33 33 34 35 37 40 43 46 47 48 48 48 48 47 46 43 41 40 39 37 36 34 34 33 31 30 30 28 26 25 24 22 21
16 19 21 23 24 26 29 30 31 32 33 34 36 38 40 43 45 48 49 50 50 50 50 50 50 48 46 43 41 39 37 36 33 32 32 30 29 28 26 24 22 21 19 18
17 19 22 25 26 27 28 29 30 32 34 37 40 44 46 48 50 53 54 54 54 53 52 52 52 50 48 45 42 40 38 36 34 32 31 29 28 26 24 22 21 20 18 16
22 23 25 27 27 28 28 30 31 33 37 40 44 47 50 53 55 58 59 59 59 57 56 55 55 53 51 48 44 42 39 37 35 32 30 28 27 25 23 21 20 19 17 15
28 29 29 30 30 32 34 36 36 38 41 45 48 51 54 57 60 62 63 63 63 63 62 60 58 57 54 51 47 43 40 38 36 33 30 28 26 24 22 21 19 18 17 15
32 34 34 34 34 36 40 42 42 44 47 51 54 58 60 62 63 65 66 67 67 67 66 65 62 60 57 54 50 46 42 39 37 34 32 29 26 24 22 20 19 17 16 14
35 36 38 39 39 41 44 46 49 52 55 58 62 64 67 69 70 71 72 72 73 73 71 69 67 63 61 57 54 49 44 41 37 35 33 30 27 25 22 20 19 17 15 13
37 39 40 42 44 46 48 51 54 57 60 63 66 69 71 73 75 76 77 77 76 74 72 70 68 66 63 59 55 51 47 42 38 36 34 32 29 26 23 21 19 16 15 13
38 40 42 45 47 49 52 55 58 61 64 67 71 73 76 77 78 78 77 75 72 70 67 64 62 60 58 57 55 52 49 45 41 37 34 32 31 28 24 22 19 17 15 13
40 42 44 47 49 52 55 59 63 67 70 73 76 78 79 79 77 73 68 63 60 56 53 51 51 51 51 51 52 52 51 48 45 40 37 34 33 30 26 23 20 18 16 15
42 44 46 49 53 57 61 65 69 71 74 76 78 77 75 70 63 56 50 47 45 44 43 43 42 42 43 45 48 50 50 48 46 41 39 36 34 32 28 25 22 20 19 18
43 47 51 55 59 63 67 70 73 75 75 73 72 67 58 51 46 42 41 40 39 39 39 38 38 38 38 39 42 46 48 48 46 42 39 38 36 34 31 27 25 22 21 20
48 53 57 62 66 69 72 74 75 74 70 65 57 50 45 42 40 39 38 38 39 38 38 38 37 36 35 34 36 41 45 46 45 42 39 40 39 36 33 30 27 25 23 22
55 60 64 68 71 74 75 74 70 64 57 50 45 41 39 39 39 39 39 39 39 39 38 37 35 33 32 32 33 35 40 43 42 41 40 40 40 38 35 32 29 27 25 24
61 65 69 73 74 74 71 66 59 52 45 41 39 37 36 37 38 39 40 40 41 41 40 38 35 32 31 30 31 32 36 40 41 41 40 40 40 39 37 34 31 29 27 25
66 70 73 75 74 70 64 57 52 46 40 37 35 35 36 38 39 40 41 43 43 43 41 38 35 33 31 30 29 30 34 38 39 40 40 39 40 39 38 36 32 29 27 25
71 74 76 76 72 65 58 52 47 41 37 35 35 36 38 40 41 43 44 44 44 42 40 38 35 32 30 28 28 29 33 37 39 39 39 39 40 39 37 36 33 30 28 26
73 74 74 70 65 58 52 46 41 38 35 35 37 38 41 43 45 46 46 45 44 43 40 37 34 29 27 26 27 29 33 37 39 39 38 39 39 38 37 36 34 32 29 26
72 71 67 62 57 52 47 42 38 35 35 37 38 41 45 47 48 48 47 46 44 41 37 34 30 26 24 24 26 29 33 37 38 38 38 40 39 39 38 37 35 32 29 26
68 65 60 56 51 46 41 37 35 34 36 39 41 44 46 48 48 48 47 44 41 37 32 29 25 22 21 23 26 30 34 36 37 38 38 40 39 38 37 37 35 32 28 25
64 60 56 51 45 38 35 33 33 35 38 41 44 47 48 49 49 47 45 41 36 32 28 24 20 18 19 23 27 31 34 35 37 38 38 38 38 37 37 36 35 32 28 26
60 56 51 46 39 32 30 31 34 37 40 43 46 48 49 48 47 44 42 38 33 29 23 17 13 16 20 24 28 33 35 35 35 36 37 37 37 37 36 35 34 31 28 26
56 51 46 41 34 29 29 32 35 38 42 45 47 48 47 46 44 41 38 34 29 22 14 7 11 16 21 26 31 35 35 35 35 34 34 34 35 35 35 34 33 31 29 27
51 46 42 37 31 28 29 32 35 39 43 45 46 46 45 42 39 38 35 29 22 13 4 4 12 18 24 29 34 35 35 33 33 33 31 31 31 33 34 34 32 30 28 26
48 43 38 33 29 28 30 33 37 40 43 44 45 44 41 39 37 34 30 23 16 8 6 11 17 22 26 31 34 34 33 33 33 31 29 27 26 28 30 31 30 29 27 25
44 40 36 31 30 31 33 36 39 42 44 44 43 40 38 36 33 29 24 19 13 10 12 16 20 24 28 32 34 34 33 33 33 30 27 25 24 25 27 27 28 27 26 24
41 37 32 28 27 29 32 35 39 42 43 43 40 37 35 33 30 26 22 17 15 14 16 19 22 25 29 32 33 33 33 33 31 28 26 24 23 24 25 26 26 26 25 23